Tracking 18984 objects as of 23-Feb-2018
HD Live streaming from Space Station
objects crossing your sky now

FENGYUN 1C DEB

Track FENGYUN 1C DEB now!
10-day predictions


NORAD ID: 31812
Int'l Code: 1999-025CHA
Perigee: 850.2 km
Apogee: 950.0 km
Inclination: 99.0 °
Period: 102.8 minutes
Semi major axis: 7271 km
RCS: 0.0063 m2 (small)
Launch date: May 10, 1999
Source: People's Republic of China (PRC)
Launch site: Taiyaun Space Center, China (TSC)

Note: This is SATELLITE DEBRIS
aabbcc
Your satellite tracking list
Your tracking list is empty




NASA's NSSDC Master Catalog

Two Line Element Set (TLE):
1 31812U 99025CHA 18042.04327652  .00000063  00000-0  71147-4 0  9997
2 31812  99.0209 118.9509 0068618 243.0853 116.3289 14.00238293546077
Source of the keplerian elements: AFSPC